Kuchera_Ratio
0.0 0.0 0.0 0.0 0.0 0.0 0.0 0.0 0.0 0.0 0.0 0.0 0.0 0.0 0.0 0.0 0.0 0.0 0.0 0.0 0.0 0.0 0.0 0.0 0.0 0.0 0.0 0.0 0.0 0.0 0.0 0.0 0.0 0.0 0.0 0.0 0.0 0.0
0.0 0.0 0.0 0.0 0.0 0.0 0.0 0.0 0.0 0.0 0.0 0.0 0.0 0.0 0.0 0.0 0.0 0.0 0.0 0.0 0.0 0.0 0.0 0.0 0.0 0.0 0.0 0.0 0.0 0.0 0.0 0.0 0.0 0.0 0.0 0.0 0.0 0.0
0.0 0.0 0.0 0.0 0.0 0.0 0.0 0.0 0.0 0.0 0.0 0.0 0.0 0.0 0.0 0.0 0.0 0.0 0.0 0.0 0.0 0.0 0.0 0.0 0.0 0.0 0.0 0.0 0.0 0.0 0.0 0.0 0.0 0.0 0.0 0.0 0.0 0.0
0.0 0.0 0.0 0.0 0.0 0.0 0.0 0.0 0.0 0.0 0.0 0.0 0.0 0.0 0.0 0.0 0.0 0.0 0.0 0.0 0.0 0.0 0.0 0.0 0.0 0.0 0.0 0.0 0.0 0.0 0.0 0.0 0.0 0.0 0.0 0.0 0.0 0.0
0.0 0.0 0.0 0.0 0.0 0.0 0.0 0.0 0.0 0.0 0.0 0.0 0.0 0.0 0.0 0.8 1.4 1.0 1.1 0.6 0.0 0.0 0.0 0.0 0.0 0.0 0.0 0.0 0.0 0.0 0.0 0.0 0.0 0.0 0.0 0.0 0.0 0.0
0.0 0.0 0.0 0.0 0.0 0.0 0.0 0.0 0.0 0.0 0.0 0.0 0.0 0.0 1.7 2.3 1.8 2.7 3.7 3.1 3.1 0.0 0.0 0.0 0.0 0.0 0.0 0.0 0.0 0.0 0.0 0.0 0.0 0.0 0.0 0.0 0.0 0.0
0.0 0.0 0.0 0.0 0.0 0.0 0.0 0.0 0.0 0.0 0.0 0.0 0.0 0.4 1.9 2.7 4.1 4.7 5.7 6.1 5.6 5.8 6.0 4.4 2.8 3.7 3.2 1.5 0.2 0.0 0.0 0.0 0.0 0.0 0.0 0.0 0.0 0.0
0.0 0.0 0.0 0.0 0.0 0.0 0.0 0.0 0.0 0.0 0.0 0.0 1.1 2.5 3.7 4.7 6.0 6.4 7.5 9.2 10.3 6.4 7.5 7.6 5.2 7.0 6.0 5.7 0.0 0.0 0.0 0.0 0.0 0.0 0.0 0.0 0.0 0.0
0.0 0.0 0.0 0.0 0.0 0.0 0.0 0.0 0.0 0.0 0.0 0.0 2.4 2.7 3.8 5.2 5.7 7.9 8.5 9.0 9.6 8.3 10.2 10.8 8.0 9.5 6.8 3.8 0.3 0.0 0.0 0.0 0.0 0.0 0.0 0.0 0.0 0.0
0.0 0.0 0.0 0.0 0.0 0.0 0.0 1.3 0.9 0.2 0.0 0.0 1.5 3.2 3.5 4.0 4.9 6.1 7.1 8.3 9.1 8.8 8.8 13.5 11.8 11.0 7.1 6.0 1.1 0.0 0.0 0.0 0.0 0.0 0.0 0.0 0.0 0.0
0.0 0.0 0.0 0.0 0.0 0.0 1.0 3.2 3.7 1.9 0.0 0.0 0.0 0.0 0.0 0.0 1.5 7.2 10.0 11.8 12.7 11.1 10.5 13.4 12.3 13.3 11.5 10.7 8.2 1.1 0.0 0.1 0.0 0.0 0.0 0.0 0.0 0.0
0.9 0.0 0.0 0.0 0.0 0.0 2.3 4.3 6.2 5.2 3.3 3.6 3.5 1.3 1.6 1.6 0.0 5.6 9.5 12.6 12.4 13.4 10.7 13.2 12.9 13.0 14.4 12.1 9.6 7.0 9.3 3.3 1.3 1.4 0.8 0.4 0.3 5.5
3.8 3.3 0.0 0.0 0.0 0.0 0.3 3.5 4.4 3.7 1.3 6.8 8.3 9.3 9.7 9.7 9.8 8.6 8.3 11.2 13.5 13.6 10.1 12.8 14.3 14.2 14.7 14.2 12.5 11.1 10.2 10.3 9.8 8.9 4.9 3.4 1.6 2.1
4.5 3.7 0.2 0.0 0.0 0.0 1.5 0.0 0.0 0.8 6.5 8.3 10.1 11.1 11.7 11.6 10.3 9.7 9.4 10.0 10.7 12.0 10.1 11.6 14.7 14.8 15.2 15.0 15.2 13.3 12.3 12.6 12.6 12.7 12.1 7.7 5.1 3.9
3.3 2.1 0.0 0.0 0.0 0.0 0.0 0.0 0.0 5.9 7.7 10.0 10.7 11.3 10.7 10.6 10.7 11.4 10.7 10.8 11.5 11.1 8.7 11.4 14.5 14.7 15.7 15.7 16.1 15.7 14.5 14.5 12.8 13.5 12.4 12.5 12.4 12.0
1.1 1.8 1.3 1.4 2.0 1.7 1.2 1.1 6.2 6.7 8.1 9.7 10.3 10.8 11.7 12.4 12.9 12.8 13.8 14.3 14.7 14.3 12.0 11.8 13.0 15.4 15.9 15.7 16.3 16.7 15.3 17.3 14.4 13.7 12.9 12.3 11.8 11.3
5.0 5.2 5.2 6.4 7.2 7.6 8.2 8.0 8.2 8.3 10.0 10.9 12.2 12.7 12.4 12.5 13.0 13.8 14.7 15.3 15.8 16.2 15.8 15.0 13.6 14.3 15.3 15.6 17.3 16.2 16.0 15.8 14.3 14.0 13.8 13.7 11.8 11.4
6.5 7.6 8.0 8.1 8.7 8.9 9.8 10.4 10.0 8.2 10.4 11.1 12.4 12.7 13.3 13.9 14.3 14.8 15.3 15.7 16.7 16.6 16.4 15.8 16.4 16.8 16.7 15.7 12.5 15.5 15.5 15.2 13.9 13.9 14.1 14.9 14.5 12.3
7.8 8.0 8.6 8.9 9.2 9.2 9.8 10.9 11.9 10.4 11.2 12.0 12.4 13.1 13.5 14.2 15.0 15.5 15.8 16.4 16.9 16.5 16.2 16.6 17.3 18.8 20.6 20.3 16.3 8.0 15.3 15.0 15.2 15.1 14.2 13.6 14.2 13.3
8.0 8.9 9.5 9.2 9.6 10.3 11.2 11.9 11.3 11.7 12.3 12.4 13.1 13.6 14.1 14.7 15.7 16.0 16.3 16.9 17.2 17.3 17.6 17.4 18.0 18.7 19.3 18.4 18.3 15.4 11.1 15.6 15.5 15.4 14.2 13.3 12.1 7.7
9.6 9.8 9.1 9.5 10.4 10.7 10.8 10.9 11.4 12.1 12.3 13.0 14.0 14.3 14.8 15.5 15.9 16.2 16.7 14.6 15.6 17.9 18.4 18.5 17.5 13.1 17.6 17.9 18.9 17.0 14.3 9.4 10.9 14.2 14.4 15.3 15.0 14.5
9.8 11.1 11.1 10.3 10.0 10.3 10.9 11.4 12.1 13.3 13.8 14.1 14.3 14.9 15.3 16.0 16.4 16.5 16.8 17.4 17.4 17.5 18.0 17.7 17.5 18.0 18.2 18.5 19.1 18.6 16.6 13.9 11.8 9.8 8.2 10.3 15.2 17.3
10.3 10.4 10.9 10.8 10.7 11.0 11.6 12.3 12.6 13.5 13.9 14.3 14.9 15.4 16.0 16.6 16.6 16.8 17.0 17.2 17.6 18.0 18.2 18.7 18.2 18.2 18.3 18.6 16.8 17.0 18.0 17.1 15.4 15.7 14.4 9.2 7.6 7.6